Meteo Giornale » Osservazioni meteo Francia » Lione-Satolas

ore: 14:30 - Osservazioni Meteo Lione-Satolas
Lat. 45° 44' N Lon. 5° 5' E Alt. 248 metri s.l.m.

molto_nuvoloso Europe/Paris

29 °C

Molto Nuvoloso

Temp. 24 Ore

21 °C

31 °C

Sud

29.6 Km/h

Dew point 17 °C

Umidità 48 %

Visibilità  10 Km

Il sole sorge alle ore 05:47

Il sole tramonta alle ore 21:34

Data e Ora Cielo e Fenomeni T °C DP °C Um. % Pres. hPa Vis. km Vento km/h
Oggi h: 14:30 molto_nuvoloso Molto Nuvoloso 29 17 48 1013 10 S 29.6
Oggi h: 14:00 molto_nuvoloso Molto Nuvoloso 29 17 48 1014 10 S 29.6
Oggi h: 13:30 sereno Sereno 29 16 45 1014 10 S 29.6
Oggi h: 13:00 molto_nuvoloso Molto Nuvoloso 28 16 48 1015 10 S 25.9
Oggi h: 12:30 molto_nuvoloso Molto Nuvoloso 28 16 48 1015 10 S 27.8
Oggi h: 12:00 molto_nuvoloso Molto Nuvoloso 27 15 47 1015 10 S 27.8
Oggi h: 11:30 molto_nuvoloso Molto Nuvoloso 27 15 47 1015 10 S 20.3
Oggi h: 11:00 sereno Sereno 26 15 50 1015 10 S/SO 24
Oggi h: 10:30 sereno Sereno 26 16 54 1015 10 S/SO 18.5
Oggi h: 10:00 sereno Sereno 26 17 57 1015 10 S 20.3
Oggi h: 09:30 sereno Sereno 24 17 64 1015 10 S 16.7
Oggi h: 08:30 sereno Sereno 22 18 78 1016 10 S/SE 7.4
Oggi h: 08:00 sereno Sereno 22 18 78 1016 10 S/SE 11.1
Oggi h: 07:30 sereno Sereno 22 18 78 1015 10 SE 7.4
Oggi h: 07:00 sereno Sereno 21 18 82 1016 10 SE 9.3
Oggi h: 06:30 sereno Sereno 21 18 82 1016 10 N 3.7
Oggi h: 06:00 molto_nuvoloso Molto Nuvoloso 21 18 82 1016 10 N 5.5
Oggi h: 05:30 molto_nuvoloso Molto Nuvoloso 22 18 78 1016 10 E/SE 7.4
Oggi h: 05:00 nuvoloso_temporali Temporale con Pioggia Debole 22 18 78 1016 10 N/NE 7.4
Oggi h: 04:30 nuvoloso_piovaschi Debole Rovescio di Pioggia 23 17 68 1016 10 S/SE 14.8
Oggi h: 04:00 nuvoloso_piovaschi Debole Rovescio di Pioggia 23 16 64 1016 10 S 18.5
Oggi h: 03:30 molto_nuvoloso Molto Nuvoloso 24 16 60 1016 10 S 13
Oggi h: 03:00 sereno Sereno 23 17 68 1016 10 S/SE 13
Oggi h: 02:30 sereno Sereno 24 17 64 1016 10 S/SE 11.1
Oggi h: 02:00 sereno Sereno 24 18 69 1016 10 SE 11.1
Oggi h: 01:30 sereno Sereno 24 18 69 1016 10 S 11.1
Oggi h: 01:00 sereno Sereno 24 17 64 1016 10 S 14.8
Oggi h: 00:30 sereno Sereno 25 18 65 1016 10 S 16.7
Oggi h: 00:00 sereno Sereno 25 18 65 1015 10 S/SE 16.7
Ieri h: 23:30 sereno Sereno 26 18 61 1015 10 S/SE 14.8
Ieri h: 23:00 sereno Sereno 26 18 61 1015 10 S/SE 14.8
Ieri h: 22:30 sereno Sereno 26 18 61 1015 10 SE 16.7
Ieri h: 22:00 sereno Sereno 27 17 54 1015 10 SE 13
Ieri h: 21:30 sereno Sereno 28 16 48 1014 10 S 11.1
Ieri h: 21:00 sereno Sereno 29 16 45 1014 10 S 11.1
Ieri h: 19:30 sereno Sereno 30 15 40 1014 10 S/SO 24
Ieri h: 19:00 sereno Sereno 31 15 37 1014 10 S/SO 25.9
Ieri h: 18:30 sereno Sereno 31 14 35 1014 10 S/SO 27.8
Ieri h: 18:00 sereno Sereno 31 15 37 1014 10 S/SO 27.8
Ieri h: 17:30 sereno Sereno 31 15 37 1014 10 S/SO 29.6
Ieri h: 17:00 sereno Sereno 31 15 37 1014 10 S/SO 35.2
Ieri h: 16:30 sereno Sereno 31 15 37 1014 10 S/SO 33.3
Ieri h: 16:00 sereno Sereno 31 14 35 1014 10 S/SO 33.3